RH
19 21 22 17 15 15 13 14 14 11 10 14 14 12 12 23 23 23 24 24 26 28 29 31 34 34 33 37 38 39 42 46 42 37 40 42 43 41 41 40 48 50 53 58
22 25 19 20 20 21 21 20 19 15 13 16 15 14 13 20 24 23 23 25 26 29 30 32 34 34 37 38 41 38 38 41 41 38 39 45 45 42 42 42 46 49 53 58
22 18 21 23 23 26 25 26 24 21 15 15 17 18 15 15 22 22 22 22 24 29 31 33 34 37 37 40 42 38 39 40 45 49 41 45 42 41 43 44 44 50 52 56
23 18 22 25 27 23 29 19 20 24 24 26 16 23 16 13 24 24 24 27 28 31 32 32 32 34 36 40 41 40 41 40 42 49 47 54 47 48 48 47 46 47 52 54
25 27 26 29 21 19 23 21 22 22 23 23 20 22 18 14 23 26 27 30 31 31 33 33 32 32 32 37 41 44 42 42 45 48 53 51 55 50 48 50 55 54 53 54
24 17 21 25 20 20 22 26 26 26 28 43 25 22 20 14 17 21 24 28 31 34 35 33 33 33 34 38 44 44 43 42 48 50 52 55 58 58 55 56 54 54 52 52
22 22 19 22 26 24 26 30 39 34 39 38 19 21 22 23 23 24 25 30 36 36 36 34 32 33 39 42 45 42 44 44 48 52 51 52 53 55 55 56 57 60 57 56
17 22 17 17 23 22 21 25 34 39 29 24 14 24 17 31 33 30 27 37 39 38 40 36 37 39 40 43 46 47 44 46 48 51 51 50 51 49 49 54 57 56 56 56
20 20 13 17 15 16 19 23 17 29 26 33 21 16 28 34 38 39 43 49 52 43 44 47 48 49 50 50 52 53 50 48 52 54 51 50 51 53 54 55 56 55 57 51
20 30 17 14 15 16 19 15 26 26 48 42 24 20 22 39 42 44 77 56 60 47 51 57 68 68 59 58 55 55 55 53 56 55 51 48 50 51 52 54 58 59 59 58
17 24 22 16 18 17 16 18 23 22 28 41 49 43 42 44 40 48 57 85 60 69 60 81 100 92 73 74 64 63 62 62 68 65 56 55 54 51 52 55 58 61 61 61
18 26 32 22 14 13 16 20 21 39 39 41 51 77 39 46 39 43 52 98 93 71 83 70 73 94 100 99 90 84 72 77 77 70 68 63 58 55 55 57 60 64 63 64
22 27 42 29 20 15 18 18 18 21 27 40 70 80 44 47 46 42 62 73 75 93 100 100 90 92 82 96 100 96 82 86 85 74 75 70 64 61 61 60 64 67 65 68
37 30 35 48 32 21 27 28 26 26 54 55 63 83 99 100 89 60 62 66 74 91 86 96 96 100 99 90 96 92 88 99 90 76 83 77 72 66 64 59 62 72 68 69
36 43 32 25 20 20 22 20 19 22 25 42 45 42 48 98 99 100 100 78 76 77 78 93 96 87 89 97 93 68 68 60 64 76 66 63 52 60 57 57 55 66 66 65
37 52 40 40 28 25 27 20 18 20 22 25 35 34 28 59 64 81 88 98 93 76 67 67 67 62 52 53 58 49 52 53 50 52 51 48 43 41 46 48 48 47 53 59
40 52 63 70 35 38 60 54 34 27 25 30 43 36 33 48 52 61 74 85 71 64 62 56 50 49 47 46 46 44 43 45 43 43 42 41 37 37 38 35 35 37 42 44
52 55 52 64 47 74 55 29 29 65 42 60 46 42 37 50 47 47 48 58 52 52 51 46 44 45 46 44 43 44 39 42 42 42 40 38 36 37 35 34 34 36 35 36
45 56 62 74 55 36 26 23 33 43 42 31 34 31 32 46 45 57 54 42 44 46 44 42 41 46 47 43 41 39 40 41 43 41 40 39 38 36 36 36 35 34 34 35
41 50 53 56 63 59 32 32 30 32 57 33 29 32 42 47 66 60 41 41 42 41 39 40 42 46 53 59 47 64 71 64 70 52 46 37 40 37 38 37 36 34 33 34
53 53 72 67 73 47 25 30 35 54 61 43 36 39 46 52 47 48 43 43 40 39 40 41 41 46 63 74 66 85 83 85 82 78 56 56 43 44 42 42 38 36 36 40
51 63 71 67 74 74 28 35 47 60 48 46 44 45 51 55 52 49 46 47 44 42 40 37 41 45 52 56 80 84 86 83 80 79 79 78 77 57 50 55 57 47 46 52
63 43 54 53 55 48 36 35 43 42 44 49 48 44 52 52 52 50 52 47 44 45 52 40 40 45 45 49 65 81 82 80 80 78 82 78 78 82 83 83 82 72 68 68
43 34 52 49 40 36 34 37 41 39 42 40 40 43 45 48 47 47 47 45 47 65 71 46 48 53 53 47 48 54 46 49 65 77 79 80 79 85 82 81 81 79 80 80
42 58 58 54 43 37 39 37 41 41 42 40 39 42 41 43 44 44 43 43 48 55 50 62 70 70 65 48 43 40 37 36 40 47 46 48 60 81 81 83 80 83 81 78
38 49 67 88 54 45 41 43 40 45 42 40 43 43 40 39 42 40 40 38 44 44 46 51 54 53 50 40 37 36 36 35 37 39 41 48 46 55 62 71 84 64 65 62
Wind_Speed
10 11 14 15 3 9 9 11 14 14 2 6 13 16 12 14 14 15 14 12 11 8 5 4 3 4 3 6 7 8 8 8 8 7 7 7 7 6 6 7 9 11 11 11
8 15 16 5 5 10 12 16 17 16 12 8 16 18 15 17 16 17 15 15 13 10 9 4 3 3 6 6 6 6 7 8 8 7 6 7 7 7 6 7 9 12 12 12
16 10 4 3 10 12 15 16 17 19 13 16 16 23 19 16 15 16 16 14 13 11 10 6 4 3 3 5 5 6 7 8 9 10 7 7 6 6 7 9 9 11 13 13
15 13 13 12 18 17 19 17 18 14 19 18 19 20 17 11 19 18 17 14 11 11 5 6 5 4 4 4 5 6 6 8 9 9 8 10 8 8 8 8 9 10 12 12
9 7 9 12 15 8 14 8 13 15 18 18 25 15 16 17 17 22 19 17 15 13 11 7 5 4 4 4 5 6 6 8 9 9 9 8 9 8 8 9 12 12 11 12
17 16 11 13 13 11 11 14 16 16 14 16 23 19 23 19 13 23 21 18 14 10 7 6 5 4 6 6 6 6 7 8 9 8 8 8 9 10 9 11 10 10 10 10
16 16 16 11 14 14 14 11 10 11 12 16 19 19 15 7 7 8 19 18 13 10 9 7 5 6 5 5 6 5 6 6 8 7 7 8 9 8 9 11 10 12 10 10
11 7 9 6 13 12 9 14 12 15 15 15 17 11 11 11 6 2 14 14 12 9 7 6 4 5 6 4 7 6 7 7 8 8 8 8 9 6 6 8 8 8 9 10
6 7 4 5 8 8 6 15 16 19 19 17 20 28 7 9 8 11 15 14 11 10 8 6 5 5 6 6 6 7 7 7 8 8 7 8 7 8 7 8 9 8 10 10
7 11 11 9 7 14 17 15 12 10 16 22 16 21 15 12 9 10 11 16 11 11 10 7 5 5 5 6 6 6 7 7 9 8 8 7 8 8 8 8 10 11 11 13
11 13 14 14 16 15 14 18 16 18 15 16 18 13 3 4 9 14 14 11 13 9 9 7 4 4 5 6 5 6 6 7 7 7 8 8 9 9 8 8 10 11 11 13
7 7 13 17 14 14 16 20 20 12 14 13 16 16 6 6 3 13 16 10 9 11 6 6 6 6 4 4 4 4 5 6 6 6 7 8 9 9 9 9 11 12 12 13
7 8 11 16 15 19 16 18 19 20 17 20 15 13 5 0 2 7 12 14 12 10 8 4 4 3 4 3 3 4 4 5 5 5 7 8 9 9 9 10 10 10 11 12
5 14 17 16 16 17 17 14 17 15 11 17 18 19 7 5 6 8 12 14 12 11 10 8 5 4 2 3 3 3 2 2 2 4 4 5 7 8 8 9 8 9 10 11
12 21 18 22 23 23 24 26 24 23 23 20 21 21 21 13 12 10 9 13 14 12 11 9 5 5 5 3 0 4 3 2 2 2 4 6 6 5 7 7 8 7 8 10
15 21 19 24 22 23 26 26 26 24 24 26 24 29 21 17 16 16 18 15 15 15 13 11 9 8 6 6 6 2 3 2 1 4 5 6 7 7 7 7 8 8 8 8
14 9 8 20 20 21 17 13 20 23 22 22 22 22 14 10 14 14 17 19 17 16 14 12 11 8 6 6 4 3 3 3 4 5 6 7 7 8 9 9 9 9 9 9
20 14 12 15 16 19 13 11 15 13 15 14 20 22 20 9 11 12 15 17 16 16 15 13 10 9 7 6 5 4 4 5 5 6 6 7 8 9 8 9 9 9 9 10
19 16 12 13 13 17 20 16 13 11 15 12 17 19 11 11 10 8 13 15 15 15 13 12 11 10 8 6 5 5 5 6 6 6 7 8 8 8 8 9 9 9 8 9
22 21 14 14 16 15 13 6 1 3 14 7 12 5 11 17 10 8 14 16 16 14 13 13 12 10 8 4 6 7 6 6 5 6 7 7 8 8 8 8 8 8 7 8
15 14 17 16 14 13 14 4 3 7 5 8 9 4 10 12 7 20 19 17 15 14 15 14 12 10 9 4 8 7 5 5 5 5 7 8 8 7 8 7 8 8 7 8
11 9 11 12 18 16 3 4 8 4 3 5 4 6 10 11 15 19 19 17 16 16 15 13 11 11 10 10 7 6 5 4 4 4 6 6 6 6 6 8 8 8 8 8
13 13 9 6 2 3 5 4 4 4 3 0 4 9 14 15 16 18 18 17 15 15 12 11 11 11 10 10 8 7 6 5 4 5 4 4 4 5 5 6 7 6 7 6
11 11 9 8 7 9 9 5 3 2 2 5 8 12 14 16 18 17 16 15 14 12 9 10 12 11 10 10 9 8 9 9 6 4 3 3 3 3 5 4 5 5 6 6
5 4 9 13 15 11 9 9 6 5 5 8 11 13 14 16 17 16 15 15 14 13 12 11 9 10 9 9 9 8 7 7 6 4 3 2 3 2 2 4 5 5 6 7
11 14 9 7 8 7 7 6 9 10 11 13 14 15 14 15 16 14 14 13 14 14 13 12 12 12 11 10 9 8 7 5 5 5 3 2 1 0 1 1 4 5 4 3
Wind_Direction
198 253 232 255 232 321 290 272 270 278 85 287 259 264 232 182 206 213 206 200 205 201 157 150 103 91 53 55 29 21 17 14 360 2 1 355 353 347 353 358 1 358 359 0
217 240 259 50 274 257 255 265 263 266 255 227 269 261 249 176 208 218 205 206 204 183 191 162 131 87 52 43 27 21 20 21 16 6 358 346 331 330 349 359 353 359 357 358
250 302 37 226 226 246 252 259 271 276 283 213 264 266 253 197 196 214 210 210 198 198 192 170 156 105 88 63 37 27 23 23 26 10 5 347 334 340 358 355 354 349 356 356
258 291 300 253 256 265 271 276 294 256 272 263 259 273 275 212 190 205 205 209 187 201 195 167 173 134 91 72 55 32 28 29 27 22 5 356 354 353 353 345 351 340 353 355
241 208 241 249 258 281 283 325 290 283 271 276 260 257 258 279 189 207 205 200 202 187 188 170 154 109 82 65 60 40 20 35 29 16 16 357 358 351 345 349 341 354 350 352
256 275 270 266 274 275 293 289 270 266 267 259 267 268 275 266 241 195 186 194 192 175 167 157 132 129 80 62 51 40 21 38 25 13 8 10 2 355 345 353 346 352 344 351
230 236 238 227 258 248 240 266 269 244 225 249 262 265 256 74 45 355 168 172 165 170 172 169 147 102 73 59 51 33 28 29 25 8 6 15 4 3 347 353 349 343 343 347
271 241 197 187 233 268 258 243 254 280 276 286 285 275 291 70 86 58 120 135 152 171 155 143 106 89 81 54 43 34 20 24 17 359 5 13 5 4 358 357 346 346 340 337
305 245 155 230 252 237 261 237 258 272 271 270 270 273 161 137 116 122 128 139 164 168 151 131 103 69 50 34 35 27 18 23 19 355 360 8 3 358 2 355 351 355 347 342
270 278 272 286 248 242 250 280 275 243 263 263 264 269 269 156 159 159 162 159 176 160 155 129 95 64 37 33 28 24 16 23 13 350 352 9 357 0 0 1 2 360 351 354
284 269 266 263 250 264 269 230 235 257 264 269 281 284 50 4 188 183 174 162 167 172 157 138 127 94 58 22 23 28 20 26 11 350 340 4 0 1 2 7 10 359 357 2
256 284 275 271 281 286 272 268 278 274 262 261 262 263 19 352 287 175 173 159 153 159 145 141 122 124 78 61 35 33 28 16 8 351 343 357 7 5 3 11 16 4 3 9
318 241 263 264 247 235 238 255 256 264 271 269 283 279 76 305 218 172 156 168 160 139 142 124 106 91 97 97 62 41 18 13 348 357 356 0 7 5 5 8 22 9 9 14
328 264 258 264 278 302 297 244 253 274 286 276 262 276 230 214 181 171 159 173 167 164 157 159 162 145 122 83 100 61 307 174 303 344 9 342 29 4 10 7 19 14 15 16
251 264 265 266 271 271 271 272 273 272 271 274 279 270 276 191 197 163 147 170 168 176 166 162 175 162 155 146 241 161 313 128 206 206 47 354 28 21 21 12 11 40 19 25
225 256 270 271 267 257 257 257 260 262 271 272 277 276 279 166 183 177 177 177 178 179 170 165 171 185 161 158 179 145 123 46 13 40 17 27 19 20 25 24 19 30 29 42
257 252 270 265 268 270 273 270 271 270 271 270 274 279 290 191 205 180 175 187 188 175 167 168 168 163 160 149 155 122 102 106 61 46 40 32 20 28 25 25 24 26 27 32
252 244 256 269 287 270 269 233 242 253 266 274 281 287 292 226 216 192 182 183 180 169 165 160 151 153 154 143 140 145 122 97 75 58 49 45 32 35 28 29 30 26 30 31
235 244 244 252 255 262 269 265 243 236 278 278 268 259 249 132 139 146 193 172 165 160 154 152 147 145 145 142 147 130 110 92 73 60 53 50 32 37 32 33 31 29 32 33
215 226 230 248 261 268 274 81 7 326 275 4 329 294 145 148 189 165 154 147 147 146 145 140 136 139 131 122 107 88 67 73 55 45 42 47 45 37 37 31 26 32 34 34
200 222 227 237 249 261 272 152 229 251 335 344 328 141 166 189 333 130 142 140 146 139 138 141 146 140 146 111 110 109 116 98 68 27 44 33 30 33 28 27 27 16 33 32
192 207 224 234 248 265 337 109 238 13 21 4 307 142 159 109 118 130 141 143 144 146 143 153 142 140 142 137 129 132 116 101 81 69 60 50 30 18 22 27 16 19 14 27
207 232 250 244 254 12 300 314 48 336 353 115 158 152 132 141 140 144 149 150 148 143 151 154 146 144 142 146 146 136 138 129 110 88 67 55 52 29 19 27 16 19 12 14
228 262 260 277 273 283 245 205 251 263 275 173 158 144 156 147 151 148 149 149 147 146 157 149 150 149 150 150 152 157 145 145 143 131 124 108 55 34 22 16 21 25 15 5
265 260 258 256 265 275 269 249 231 195 164 156 147 158 156 151 154 156 157 155 149 160 158 154 152 158 156 161 155 150 154 156 152 154 157 158 126 37 87 68 18 13 54 20
261 249 247 258 272 275 296 356 185 183 179 165 159 160 154 159 159 160 159 158 157 162 158 165 166 167 168 169 156 153 156 180 166 166 181 53 334 5 20 317 162 114 101 69